[[{"header":{"parameterUnit":"m.s-1","parameterCategory":1,"la1":30.2992,"la2":30.254,"lo1":-89.0895,"lo2":-89.0443,"dy":0.0025,"dx":0.0025,"nx":19,"ny":19,"refTime":"2026-04-03T03:00:00:Z","depth":0,"parameterNumber":2,"parameterNumberName":"U-component_of_WINDS"},"data":[0,0,0,-4.9287,-4.9289,-4.9399,-4.9399,-4.9544,-4.9545,0,0,0,0,0,0,0,0,0,0,0,-4.9257,-4.9259,-4.9286,-4.9289,-4.9399,-4.9399,-4.9544,-4.9545,0,0,0,0,0,0,0,0,0,0,0,-4.9257,-4.9258,-4.926,-4.929,-4.9399,-4.9399,-4.9543,-4.9459,0,0,0,0,0,0,0,0,0,0,-4.9352,-4.9328,-4.9258,-4.926,-4.929,-4.9399,-4.9399,-4.9455,-4.9464,-4.9497,0,-4.9527,0,-4.9539,-4.9555,-4.9556,0,0,0,-4.9286,-4.932,-4.9347,-4.926,-4.9291,-4.9398,-4.9349,-4.946,-4.9471,-4.9509,-4.9529,-4.9534,-4.9541,-4.9556,-4.9557,-4.9756,-4.9757,0,0,-4.928,-4.9278,-4.934,-4.9354,-4.9338,-4.9345,-4.9352,-4.9466,-4.9487,-4.9529,-4.9537,-4.9543,-4.9557,-4.9559,-4.9755,-4.9756,0,0,0,-4.9265,-4.9274,-4.9298,-4.9348,-4.9368,-4.9348,-4.9356,-4.9482,-4.949,-4.9539,-4.9545,-4.9558,-4.956,-4.9754,-4.9755,-4.9805,0,0,0,-4.9261,-4.9265,-4.9296,-4.9296,-4.9366,-4.9426,-4.937,-4.9482,-4.9495,-4.9544,-4.9558,-4.9562,-4.9753,-4.9755,-4.9801,-4.9828,0,0,0,-4.9249,-4.9264,-4.9281,-4.9295,-4.9343,-4.9425,-4.9439,-4.9485,-4.9499,-4.9556,-4.9562,-4.9752,-4.9754,-4.9798,-4.9822,-4.9879,0,0,0,-4.9235,-4.9323,-4.9282,-4.9383,-4.9342,-4.9456,-4.9438,-4.9523,-4.9578,-4.9559,-4.9753,-4.9755,-4.9797,-4.9819,-4.9876,-4.9925,-4.9947,0,0,-4.9345,-4.9336,-4.9396,-4.9362,-4.9483,-4.9439,-4.9567,-4.9619,-4.9625,-4.9712,-4.9717,-4.9803,-4.9822,-4.9879,-5.007,-5.0086,0,0,0,-4.943,-4.9472,-4.9505,-4.9558,-4.9601,-4.9639,-4.9672,-4.9692,-4.9766,-4.967,-4.984,-4.9851,-4.9885,-4.9908,-4.9923,-4.9951,-4.9767,-4.9766,-4.9766,-4.9579,-4.9585,-4.9684,-4.9704,-4.9756,-4.9791,-4.9833,-4.9865,-4.9854,-4.9895,-4.9919,-5.0035,-5.0062,-5.0073,-5.0103,-4.9948,-4.9948,-4.9948,-4.9949,-4.9739,-4.9799,-4.9787,-4.9878,-4.9884,-4.996,-4.9998,-4.9989,-5.006,-5.0016,-5.0045,-4.9994,-5.0091,-5.0117,-4.9952,-4.9952,-4.9951,-4.9951,-4.9951,-4.9835,-4.9865,-4.989,-4.9968,-5.0029,-5.0046,-5.0117,-5.012,-5.0123,-5.0153,-5.0179,-5.0178,-5.0176,-5.0166,-5.0166,-5.0167,-5.0167,-5.0167,-5.0167,-4.9925,-4.9951,-5.001,-5.0065,-5.0101,-5.0148,-5.0186,-5.0221,-5.026,-5.0257,-5.0257,-5.0242,-5.0101,-5.0064,-5.0174,-5.0172,-5.0172,-5.0171,-5.0171,-5.008,-5.0046,-5.0137,-5.0173,-5.024,-5.0299,-5.0305,-5.0376,-5.0405,-5.044,-5.0421,-5.0317,-5.0307,-5.0296,-5.0265,-5.042,-5.042,-5.042,-5.042,-5.016,-5.0157,-5.0252,-5.0309,-5.0366,-5.038,-5.0484,-5.0515,-5.0542,-5.0561,-5.054,-5.0501,-5.0489,-5.0486,-5.0471,-5.0442,-5.0639,-5.0639,-5.0639,-5.0255,-5.0258,-5.0345,-5.0372,-5.0425,-5.047,-5.0568,-5.0634,-5.0658,-5.0648,-5.0576,-5.0566,-5.0503,-5.0482,-5.0467,-5.0443,-5.039,0,0]},{"header":{"parameterUnit":"m.s-1","parameterCategory":1,"la1":30.2992,"la2":30.254,"lo1":-89.0895,"lo2":-89.0443,"dy":0.0025,"dx":0.0025,"nx":19,"ny":19,"refTime":"2026-04-03T03:00:00:Z","depth":0,"parameterNumber":3,"parameterNumberName":"V-component_of_WINDS"},"data":[0,0,0,3.4807,3.4807,3.4802,3.4802,3.4794,3.4794,0,0,0,0,0,0,0,0,0,0,0,3.481,3.481,3.4807,3.4807,3.4802,3.4802,3.4794,3.4794,0,0,0,0,0,0,0,0,0,0,0,3.481,3.481,3.481,3.4807,3.4802,3.4802,3.4794,3.4798,0,0,0,0,0,0,0,0,0,0,3.4803,3.4807,3.481,3.481,3.4807,3.4802,3.4802,3.4798,3.4798,3.4797,0,3.4798,0,3.4796,3.4794,3.4794,0,0,0,3.4805,3.4807,3.4805,3.481,3.4807,3.4802,3.4804,3.4798,3.4797,3.4796,3.4798,3.4797,3.4796,3.4794,3.4793,3.4801,3.4801,0,0,3.4806,3.4808,3.4806,3.4805,3.4808,3.4804,3.4804,3.4797,3.4798,3.4798,3.4797,3.4796,3.4793,3.4793,3.4801,3.4801,0,0,0,3.4808,3.4809,3.4807,3.4805,3.4805,3.4804,3.4803,3.4798,3.4798,3.4797,3.4796,3.4793,3.4793,3.4801,3.4801,3.4811,0,0,0,3.4808,3.481,3.4807,3.4809,3.4805,3.4802,3.4805,3.4798,3.4798,3.4796,3.4793,3.4793,3.48,3.4801,3.481,3.4814,0,0,0,3.481,3.481,3.481,3.4809,3.4807,3.4802,3.4801,3.4798,3.4797,3.4794,3.4793,3.48,3.4801,3.481,3.4814,3.4819,0,0,0,3.4812,3.4816,3.481,3.4815,3.4807,3.4809,3.4801,3.4801,3.48,3.4793,3.48,3.4801,3.481,3.4813,3.4818,3.4824,3.4827,0,0,3.4819,3.4817,3.482,3.4815,3.4819,3.481,3.4815,3.4808,3.4804,3.4802,3.4802,3.4811,3.4813,3.4819,3.4841,3.4843,0,0,0,3.4823,3.4825,3.4826,3.4826,3.4825,3.4824,3.4817,3.4816,3.4815,3.4804,3.4814,3.4815,3.4818,3.4821,3.4822,3.4825,3.4802,3.4802,3.4802,3.4835,3.4833,3.4838,3.4837,3.4837,3.4834,3.4834,3.4831,3.4824,3.4827,3.4826,3.484,3.4843,3.4844,3.4847,3.4829,3.4829,3.4829,3.4829,3.4846,3.4849,3.4847,3.4851,3.4848,3.4851,3.4848,3.4845,3.4846,3.4839,3.4842,3.4834,3.4847,3.4849,3.483,3.4829,3.4829,3.4829,3.4829,3.4853,3.4855,3.4856,3.486,3.4862,3.486,3.4864,3.486,3.4856,3.4859,3.4859,3.4859,3.4858,3.486,3.486,3.486,3.486,3.486,3.486,3.486,3.4861,3.4866,3.4869,3.4871,3.4873,3.4872,3.4873,3.4874,3.4871,3.4871,3.4866,3.4849,3.4845,3.486,3.486,3.486,3.486,3.486,3.4871,3.4869,3.4876,3.4879,3.4884,3.4888,3.4886,3.489,3.489,3.4893,3.4889,3.4877,3.4873,3.4872,3.4869,3.4889,3.4889,3.4889,3.4889,3.4877,3.4877,3.4886,3.4891,3.4895,3.4896,3.4904,3.4905,3.4905,3.4905,3.4902,3.4898,3.4896,3.4894,3.4892,3.4889,3.4914,3.4914,3.4914,3.4884,3.4885,3.4893,3.4897,3.4901,3.4905,3.4913,3.4918,3.4917,3.4915,3.4906,3.4905,3.4898,3.4895,3.489,3.4887,3.4881,0,0]}]]